Printer-friendly version
Follow the MPC on Twitter Follow the MPC on Facebook The MPC blog
Minor Planet Center

MPEC 2010-P65 : 2010 PS65

The following Minor Planet Electronic Circular may be linked-to from your own Web pages, but must not otherwise be redistributed electronically.

A form allowing access to any MPEC is at the bottom of this page.


Read MPEC 2010-P64 Read MPEC 2010-Q01


M.P.E.C. 2010-P65                                Issued 2010 Aug. 15, 21:26 UT

     The Minor Planet Electronic Circulars contain information on unusual
         minor planets and routine data on comets.  They are published
   on behalf of Commission 20 of the International Astronomical Union by the
          Minor Planet Center, Smithsonian Astrophysical Observatory,
                          Cambridge, MA 02138, U.S.A.

             Prepared using the Tamkin Foundation Computer Network

                              MPC@CFA.HARVARD.EDU
       URL http://www.minorplanetcenter.org/iau/mpc.html  ISSN 1523-6714

                                   2010 PS65

Observations:
     K10P65S* C2010 08 13.29423 22 11 29.05 -07 08 37.6          19.0   EP065704
     K10P65S  C2010 08 13.30664 22 11 41.52 -07 07 40.4          19.2   EP065704
     K10P65S  C2010 08 13.31904 22 11 54.00 -07 06 41.9          19.2   EP065704
     K10P65S  C2010 08 13.33144 22 12 06.48 -07 05 43.7          19.4   EP065704
     K10P65S  C2010 08 14.31579 22 28 52.95 -05 50 57.3          19.3   EP065704
     K10P65S  C2010 08 14.32798 22 29 04.13 -05 50 03.7          19.7   EP065704
     K10P65S  C2010 08 14.35227 22 29 26.44 -05 48 16.2          19.7   EP065704
     K10P65S  C2010 08 14.36444 22 29 37.58 -05 47 22.0          19.2   EP065704
     K10P65S KC2010 08 14.97380 22 39 19.30 -05 03 59.4                 EP065J95
     K10P65S KC2010 08 14.98634 22 39 30.36 -05 03 07.7                 EP065J95
     K10P65S KC2010 08 14.99354 22 39 36.68 -05 02 36.8          19.5 R EP065J95
     K10P65S KC2010 08 15.19037 22 42 35.58 -04 45 25.4          19.9 R EP065I19
     K10P65S KC2010 08 15.19588 22 42 40.23 -04 45 03.2          19.6 R EP065I19
     K10P65S KC2010 08 15.20582 22 42 48.60 -04 44 22.2          19.6 R EP065I19
     K10P65S  C2010 08 15.34114722 44 45.87 -04 38 06.5          19.1 V EP065H21
     K10P65S  C2010 08 15.34343322 44 47.80 -04 37 56.6          19.3 V EP065H21
     K10P65S  C2010 08 15.34571922 44 49.71 -04 37 47.4          19.2 V EP065H21
     K10P65S  C2010 08 15.34800322 44 51.63 -04 37 37.9          19.2 V EP065H21
     K10P65S  C2010 08 15.35050522 44 53.74 -04 37 27.6          19.4 V EP065H21

Observer details:
704 Lincoln Laboratory ETS, New Mexico.  Observers M. Blythe, G. Spitz,
    R. Brungard, J. Paige, P. Festler.  1.0-m f/2.15 reflector + CCD.
H21 Astronomical Research Observatory, Westfield.  Observer R. Holmes.
    Measurer S. Foglia.  0.81-m f/4.5 astrograph + CCD.
I19 Observatorio El Gato Gris, Tanti.  Observer C. Colazo.  0.35-m f/11
    Schmidt-Cassegrain + CCD + f/3.3 focal reducer.
J95 Great Shefford.  Observer P. Birtwhistle.  0.40-m f/6.0 Schmidt-Cassegrain
    + CCD.

Orbital elements:
2010 PS65                                                Earth MOID = 0.0452 AU
Epoch 2010 July 23.0 TT = JDT 2455400.5                 MPC
M 356.94835              (2000.0)            P               Q
n   0.20143785     Peri.  153.12680     +0.69179579     +0.72208656
a   2.8820975      Node   160.64511     -0.66417593     +0.63798525
e   0.6324865      Incl.    0.53526     -0.28335299     +0.26751788
P   4.89           H   24.6           G   0.15           U   6
Residuals in seconds of arc
100813 704  0.1-  0.3+    100814 704  0.1-  0.2-    100815 H21  0.4-  0.2-
100813 704  0.4-  0.4-    100814 J95  0.0   0.6+    100815 H21  0.2-  0.3+
100813 704  0.1-  0.2+    100814 J95  0.1+  0.5-    100815 H21  0.3-  0.0
100813 704  0.4+  0.4+    100814 J95  0.0   0.1+    100815 H21  0.3-  0.1+
100814 704  0.1+  0.3-    100815 I19  0.5+  0.4+    100815 H21  0.1-  0.1+
100814 704  0.3-  0.6-    100815 I19  0.4+  0.2-
100814 704  0.1+  0.5-    100815 I19  0.2+  0.4-

Ephemeris:
2010 PS65                a,e,i = 2.88, 0.63, 1                   q = 1.0592
Date    TT    R. A. (2000) Decl.     Delta      r     Elong.  Phase     V
2010 08 12    21 47.26   -08 50.0    0.0482   1.061   171.8     7.8    18.7
2010 08 22    23 56.14   +00 59.6    0.0758   1.077   149.1    28.8    20.4
2010 09 01    00 42.17   +04 25.9    0.117    1.109   146.9    29.8    21.5
2010 09 11    00 58.46   +05 26.5    0.163    1.154   152.5    23.8    22.1
2010 09 21    01 02.86   +05 33.3    0.215    1.210   161.1    15.6    22.5
2010 10 01    01 02.39   +05 21.1    0.276    1.274   171.1     7.0    22.8
2010 10 11    01 00.57   +05 07.5    0.347    1.346   178.1     1.4    23.1

Carl W. Hergenrother         (C) Copyright 2010 MPC           M.P.E.C. 2010-P65

Read MPEC 2010-P64 Read MPEC 2010-Q01


MPEC number:

Enter an MPEC number in one of the following forms:

  • 1997-B01 (the full form)
  • J97B01 (the packed version of the full form)
  • B01 (the abbreviated form)

Valid HTML 4.01!